Cloud_Cover
94 8 5 10 84 100 100 100 100 100 100 100 100 100 100 100 92 95 85 77 29 21 51 82 96 69 72 5 5 5 5 82 36 3 0 0 0 0 0 0 0 0 0 3 49
56 57 52 23 12 92 100 100 100 100 100 100 88 100 100 100 100 100 100 73 68 98 99 17 99 88 5 5 5 5 74 28 13 5 3 0 0 0 0 0 0 0 0 97 100
100 97 21 96 35 4 6 48 100 100 100 100 100 100 100 100 96 100 100 32 77 73 81 62 50 62 58 6 5 5 5 15 6 3 3 0 0 0 0 0 0 0 0 37 100
100 100 21 5 49 5 13 100 100 100 100 100 100 100 100 100 100 100 100 100 63 25 12 48 6 5 5 5 5 5 3 5 5 2 0 0 0 0 0 0 0 0 0 0 67
100 100 57 12 21 70 100 100 100 100 90 100 100 100 100 100 100 100 100 100 100 100 81 26 6 5 5 5 5 5 5 5 5 0 0 0 0 0 0 0 0 0 0 0 74
8 94 27 8 5 48 100 100 100 100 100 100 100 94 100 100 100 100 100 100 100 100 100 67 57 50 69 22 5 5 3 1 1 2 0 5 3 0 0 0 0 0 0 0 29
100 50 0 5 5 4 32 100 100 100 100 100 100 80 100 98 100 100 100 100 100 100 100 100 100 98 44 12 16 5 5 4 3 0 0 0 0 0 0 0 0 0 0 0 0
100 99 5 5 5 0 0 5 74 100 100 100 84 100 95 95 100 88 43 35 98 100 98 98 100 100 96 56 6 5 5 5 0 0 0 0 0 0 0 0 0 0 0 0 0
1 16 5 5 10 0 0 0 4 5 43 85 97 100 100 100 100 100 98 29 92 94 45 40 27 26 34 58 76 48 14 5 5 0 0 0 0 0 0 0 0 0 0 0 0
5 5 5 5 18 0 0 0 0 0 1 3 4 5 25 22 19 28 32 10 11 44 30 14 21 5 5 5 4 5 5 5 5 5 1 3 0 0 0 0 0 0 0 0 0
5 8 5 5 8 0 0 0 1 0 0 0 0 0 0 0 0 3 5 5 3 5 5 4 0 0 0 0 1 0 0 0 0 0 0 0 0 0 0 0 0 0 0 0 0
5 5 5 5 0 0 0 20 96 8 1 0 0 0 0 0 0 0 0 1 0 0 0 0 0 0 0 0 0 0 0 0 0 0 0 0 0 0 0 0 0 0 0 0 0
5 5 5 0 0 0 0 26 4 3 2 0 0 0 0 0 0 0 0 0 0 0 0 0 0 0 0 0 0 0 0 0 0 0 0 0 0 0 0 0 0 0 0 0 0
5 3 1 0 0 2 3 3 0 0 4 0 0 0 0 0 0 0 0 0 0 0 0 0 0 0 0 0 0 0 0 0 0 0 0 0 1 0 0 0 0 0 0 0 0
5 0 0 0 1 20 23 0 5 2 0 2 0 0 0 0 0 0 0 0 0 0 0 0 0 0 0 0 0 0 0 0 0 5 4 0 22 0 0 0 0 0 0 0 0
5 0 0 1 4 3 0 0 4 0 72 2 0 0 0 0 0 0 0 0 0 0 0 0 0 0 0 0 0 0 0 0 0 5 35 0 0 0 0 0 0 0 0 0 0
3 0 0 0 22 4 0 2 2 40 18 2 0 0 0 0 0 0 0 0 0 0 4 0 0 0 0 0 0 0 2 20 2 7 10 0 0 0 0 0 0 0 0 0 0
0 0 0 0 0 0 2 5 17 84 9 0 1 2 3 0 0 0 0 2 0 1 5 26 3 2 0 0 0 0 5 26 98 5 3 0 2 0 0 0 0 0 0 0 0
0 0 0 0 0 1 5 34 99 59 4 4 4 6 8 27 29 41 92 100 99 97 69 90 82 7 5 5 4 0 3 82 95 5 100 5 0 0 0 0 0 0 0 0 0
2 5 1 0 0 5 5 66 71 78 2 2 5 5 22 69 98 100 100 100 100 100 100 100 98 99 43 5 0 9 3 35 7 90 39 0 0 0 0 0 0 0 1 0 0
5 5 0 0 4 5 86 82 47 3 0 1 5 5 5 38 5 38 95 95 72 32 43 82 91 74 10 2 0 2 41 9 5 65 100 38 1 0 4 3 3 0 4 8 41
5 5 0 0 5 99 89 94 7 0 0 4 12 5 92 28 37 5 5 5 7 6 5 5 71 96 5 0 0 0 6 4 37 5 6 100 77 0 59 2 5 5 5 37 62
68 53 0 5 10 66 13 4 5 1 1 3 35 79 96 5 34 5 5 0 5 2 1 49 69 100 4 0 0 0 0 5 70 70 68 95 44 0 0 5 5 62 16 93 100
22 5 5 5 30 19 73 5 4 1 5 4 24 10 5 18 5 27 45 3 2 5 0 99 89 58 60 8 5 5 22 7 100 100 3 20 4 0 5 5 82 100 100 100 100
53 47 62 5 6 76 16 68 25 4 2 4 1 5 12 92 9 64 4 3 1 0 5 32 100 36 69 68 5 6 79 5 89 22 100 5 4 5 5 14 100 97 76 100 100
5 5 59 83 44 5 5 2 5 3 5 5 6 5 5 98 25 96 5 22 72 18 8 39 62 29 100 5 5 6 5 0 1 1 5 44 49 0 4 14 99 82 98 100 100
85 93 6 19 90 14 4 0 0 2 1 0 5 5 6 3 0 2 0 4 6 94 100 100 100 100 89 23 88 73 1 5 2 0 0 57 0 5 81 100 100 100 100 100 100